sat.trackr.live / text

‹ back to catalog

FLOCK 4H-9

NORAD 66712 · 2025-276AY

PAYLOAD ACTIVE UNKNOWN

§ Identity

Operator
Country
US
Launch date
2025-11-28
Launch site
AFWTR
Launch vehicle
Mass (kg)
RCS (m²)

Purposes: earth_obs

External: N2YO · Heavens-Above · Gunter

§ Orbital elements

Epoch: 2026-05-24T18:32:10.886208Z

Period
94.73 min
Inclination
97.4220°
Eccentricity
0.0004655
Mean motion
15.20107642 rev/d
Perigee alt
502.3 km
Apogee alt
508.7 km
Semi-major
6,883.7 km
B*
2.5985e-4
RAAN
218.8805°
Arg perigee
74.1676°
Mean anomaly
286.0072°
Rev number
2,687

§ Raw data

FLOCK 4H-91 66712U 25276AY  26144.77234822  .00005548  00000+0  25985-3 0  99992 66712  97.4220 218.8805 0004655  74.1676 286.0072 15.20107642 26877

JSON: /api/v1/satellites/66712 · /tle

For live sub-satellite position, see the globe view (requires WebGL).

§ Visibility from observer

Set your observer location to see the next 7 days of passes ≥ 10°. The values pass through the URL so the page stays shareable.

No JS? Fill the form by hand. The geolocation button needs JavaScript.